Miscellaneous Local Product
Issued by NWS Hastings, NE

Home | Current Version | Previous Version | Text Only | Print | Product List | Glossary On
Versions: 1 2 3 4 5 6 7 8 9 10 11 12 13 14 15 16 17 18 19 20 21 22 23 24 25 26 27 28 29 30 31 32 33 34 35 36 37 38 39 40 41 42 43 44 45 46 47 48 49 50
225
AXUS43 KGID 211802
MISGRI

GID CWA HOURLY WEATHER ROUNDUP
NATIONAL WEATHER SERVICE HASTINGS NE
1200 PM CST WED FEB 21 2018

NOTE: "FAIR" INDICATES FEW OR NO CLOUDS BELOW 12,000 FEET WITH NO
SIGNIFICANT WEATHER AND/OR OBSTRUCTIONS TO VISIBILITY.

...SOUTH CENTRAL NEBRASKA...

CITY           SKY/WX    TMP DP  RH WIND       PRES   REMARKS
GRAND ISLAND   FAIR      19   2  47 CALM      30.57F
KEARNEY        FLURRIES  24   3  40 SE5       30.54F WCI  18
HASTINGS       FAIR      20   0  41 CALM      30.55F
ORD            FAIR      16   4  59 SW9       30.54S WCI   4
YORK           FAIR      21   3  45 CALM      30.59F
AURORA         FAIR      20   2  45 CALM      30.57F
LEXINGTON      FAIR      21   5  50 SE8       30.50F WCI  11
HOLDREGE       FAIR      20   3  47 SE3       30.51F
HEBRON         FAIR      23   2  41 NE5       30.60S WCI  16

...NEBRASKA PANHANDLE...

CITY           SKY/WX    TMP DP  RH WIND       PRES   REMARKS
CHADRON        FAIR       2  -8  63 CALM      30.31R
ALLIANCE       FAIR      16   9  74 S9        30.27F WCI   4
SCOTTSBLUFF    MIX PCPN   9   2  73 E12       30.27F WCI  -6
SIDNEY         FAIR      26   5  40 S18G25    30.29S WCI  13

...WESTERN AND NORTH CENTRAL NEBRASKA...

CITY           SKY/WX    TMP DP  RH WIND       PRES   REMARKS
VALENTINE      FAIR      14   3  61 S7        30.44S WCI   4
AINSWORTH      FAIR      14   4  65 S10       30.45F WCI   1
ONEILL         FAIR      15   2  56 S8        30.53F WCI   3
BROKEN BOW     FAIR      16   2  54 SE7       30.49F WCI   6
IMPERIAL       FAIR      19   6  57 SE10      30.40F WCI   7
NORTH PLATTE   FAIR      17   4  56 S8        30.46F WCI   7
MCCOOK         FAIR      22   5  48 SE8       30.47F WCI  12

...EASTERN NEBRASKA...

CITY           SKY/WX    TMP DP  RH WIND       PRES   REMARKS
NORFOLK        FAIR      16   6  65 VRB5      30.58S WCI   9
SO SIOUX CITY  FAIR      14   5  67 E6        30.66F WCI   5
TEKAMAH        FAIR      17   8  67 CALM      30.66F
COLUMBUS       FAIR      22   8  55 CALM      30.62F
ALBION         FAIR      18   3  51 SE6       30.57F WCI  10
OMAHA EPPLEY   PTSUNNY   21   8  57 E6        30.65F WCI  13
OFFUTT AFB     FAIR      21   6  52 NE8       30.64F WCI  11
MILLARD        FAIR      21   6  51 CALM      30.64F
LINCOLN        FAIR      21   5  50 NE7       30.64F WCI  12
NEBRASKA CITY  FAIR      20  11  68 NE6       30.63S WCI  12
BEATRICE       FAIR      22   7  53 E8        30.61S WCI  12
FALLS CITY     FAIR      21  11  65 NE10      30.62F WCI  10

...NORTHERN KANSAS...

CITY           SKY/WX    TMP DP  RH WIND       PRES   REMARKS
GOODLAND       FAIR      23   5  46 S8        30.37F WCI  14
HILL CITY      FAIR      21   2  43 MISG      30.53F
NORTON         CLEAR     21  -2  35 SE7       30.50F WCI  13
PHILLIPSBURG   SUNNY     23   0  36 E3        30.55F
SMITH CENTER   MOSUNNY   21   1  42 NE5       30.57F WCI  15
BELOIT         SUNNY     21   1  42 CALM      30.60F
HAYS           FAIR      24   3  40 NE10      30.54S WCI  14
RUSSELL        FAIR      23   1  38 NE8       30.53F WCI  14
CONCORDIA      FAIR      22   4  46 N10       30.57F WCI  11
SALINA         PTSUNNY   24   9  52 N14       30.57F WCI  12
TOPEKA         FAIR      23  16  74 N14       30.59S WCI  11



USA.gov is the U.S. government's official web portal to all federal, state and local government web resources and services.